Погода в Утене

Погода в Утене : погода сейчас, прогноз погоды и архив. Всё, что Вы хотите узнать о погоде в Утене!

Поиск расширенной информации на нашем сайте:

Другие новости

Новости СМИ2

Главная страница сайта

Новости сайта

03.07.2017

Напоминаем, что на нашем специализированном сайте Метеоцентр.Азия вы можете получить высокодетализированные автоматические прогнозы погоды по пунктам России, СНГ и мира в авиационном формате (включающие направление и скорость ветра, видимость, явления погоды, количество и форму облачности, нижнюю и верхнюю границу облачности).


Погода в Утене - сегодня

Время (UTC), дата Ветер
(°,м/с) 
Видим.   Явления Облачность Т
(°С)
Тd
(°С)
f(%) Тe
(°С)
Pmin
(гПа)
dP
(гПа)
Po
(мм)
O2
(г/м3)
Тmin Tmax R s Состояние
почвы
00 14.08.18 тихо () -0{02}  10 км    9/5 600 м средняя 
[Sc|Ac und]
+11.4 +11 97 +14  1013.2  0.5  750  288           
03 14.08.18 тихо () -0{01}  12000 м    8/5 600 м средняя, верхняя 
[Sc|Ac und|Ci sp]
+12.3 +11.8 97 +16  1012.7  -0.4  750  287           
06 14.08.18 110 (В) 3-4{04}  20000 м    5/3 600 м верхняя 
[Sc|Ci sp]
+16.6 +14.5 87 +25  1012.2  -0.3  750  282  +10.7        влажная 
09 14.08.18 090 (В) 3-6{06}  20000 м    6/3 1000 м верхняя 
[Cu med, cong|Ci sp]
+21.1 +15.2 69 +30  1011.6  -0.4  749  277           
12 14.08.18 130 (ЮВ) 3-5{06}  20000 м    8/4 600 м средняя, верхняя 
[Cu med, cong|Ac und|Ci sp]
+24.8 +15.6 57 +35  1010.6  -0.9  749  273           
15 14.08.18 090 (В) 2-4{06}  20000 м    8/4 1000 м средняя, верхняя 
[Cu med, cong|Ac und|Ci sp]
+23.1 +17.1 69 +36  1008.6  -2  747  274           
18 14.08.18 240 (ЮЗ) 3-9{09}  6000 м  гроза, ливневой дождь  10/6 600 м кучево-дожд., средняя 
[Cb cap|Ac cuf]
+19.7 +18.4 92 +36  1009.4  0.6  748  277    +25     
21 14.08.18 180 (Ю) 1-3{09}  15000 м  в посл. час ливневой дождь{гроза}  9/5 600 м кучево-дожд., средняя 
[Cb cap|Ac cuf]
+18.5 +17.5 94 +33  1007.6  -1.8  746  278           
00 15.08.18 220 (ЮЗ) 1-4{05}  12000 м  {гроза, ливн. осадки}  10/10 270 м 
[St]
+18.4 +17.4 94 +33  1007.9  0.3  747  278         
03 15.08.18 250 (З) 1-3{06}  19000 м    10/10 420 м 
[St]
+17.3 +15.9 91 +29  1008.8  0.8  747  280           
06 15.08.18 260 (З) 2-4{07}  20000 м    8/8 500 м верхняя 
[Cu med, cong|Ci sp]
+18 +15.9 88 +29  1009.4  0.7  748  279  +17.2      влажная 
09 15.08.18 250 (З) 4-9{09}  20000 м    8/8 1140 м верхняя 
[Cu med, cong|Ci sp]
+20 +15.9 77 +30  1009.8  0.5  748  277           
12 15.08.18 210 (ЮЗ) 2-4{10}  19000 м  в посл. час ливневой дождь  4/3 1000 м кучево-дожд., верхняя 
[Cb cap|Ci sp]
+19.7 +17.4 87 +34  1010.7  0.9  749  277      0.7     
15 15.08.18 280 (З) 2-5{07}  20000 м  слаб. ливневой дождь  8/6 600 м кучево-дожд., средняя 
[Cb cap|Ac cuf]
+21.4 +17.9 80 +36  1011.3  0.6  749  276           
18 15.08.18 290 (З) 1-4{05}  20000 м  слаб. ливневой дождь  8/8 1410 м кучево-дожд., верхняя 
[Cb cap|Ci sp]
+19.3 +16.3 83 +32  1012.6  1.2  750  279    +23.7     
21 15.08.18 тихо () -2{05}  20000 м  {ливн. осадки}  8/8 930 м 
[Sc]
+17.4 +16.4 94 +29  1014.3  1.6  751  281           
00 16.08.18 290 (З) 1-3{04}  20000 м  {ливн. осадки}  9/9 330 м 
[St]
+16.1 +15.2 94 +26  1015.6  1.2  752  283         
03 16.08.18 300 (СЗ) 1-3{05}  11000 м    10/10 150 м 
[St]
+16.5 +15.9 96 +28  1016.8  1.2  753  283           
06 16.08.18 300 (СЗ) 2-4{04}  20000 м    8/8 720 м верхняя 
[Cu med, cong|Ci sp]
+17.6 +16.1 91 +28  1018.4  1.6  754  282  +16.1      влажная 
09 16.08.18 310 (СЗ) 1-3{05}  20000 м    8/5 600 м средняя, верхняя 
[Cu med, cong|Ac und|Ci sp]
+20 +15.2 74 +29  1019.1  0.9  755  280           
12 16.08.18 тихо () -3{05}  20000 м    8/5 600 м средняя, верхняя 
[Cu med, cong|Ac und|Ci sp]
+21.4 +15.4 69 +31  1019.7  0.6  755  279           
15 16.08.18 тихо () -2{04}  20000 м    8/8 1080 м 
[Cu med, cong]
+23.2 +15 60 +32  1019.5  -0.2  755  277           
18 16.08.18 тихо () -0{03}  20000 м    5/3 1000 м средняя, верхняя 
[Cu med, cong|Ac und|Ci sp]
+19.4 +16.4 83 +30  1020.1  0.5  756  281    +23.6       
21 16.08.18 тихо () -0{01}  10 км    ясно 
+14.9 +13.8 93 +21  1021  0.7  756  286           
00 17.08.18 тихо () -1{01}  11000 м    ясно 
+13 +12.4 96 +17  1021.7  0.6  757  289           
Время (UTC), дата Ветер
(°,м/с) 
Видим.   Явления Облачность Т
(°С)
Тd
(°С)
f(%) Тe
(°С)
Pmin
(гПа)
dP
(гПа)
Po
(мм)
O2
(г/м3)
Тmin Tmax R s Состояние
почвы

Для получения пояснительной информации подведите курсор к названию столбца.

ПОГОДА в Утене - архив

Всё, что Вы хотите узнать о погоде в Утене - удобно и подробно!

Выберите нужную дату (начиная с 1 января 2015* года) и нажмите кнопку "Найти".
Будут отображены архивные сводки погоды по пункту Утена, начиная с указанной даты.


Отображать данные в формате CSV (для использования в таблицах Excel)


Внимание! Наш архив погоды предназначен исключительно для личного некоммерческого использования в познавательных целях. Если Вам необходимы официальные справки о состоянии погоды (для производственных, юридических, коммерческих и т.п. целей), обращайтесь в органы Росгидромета.

*Примечание: данная дата относится к архиву по метеостанциям СССР (Россия, СНГ, Балтия).
Архив по метеостанциям Зарубежной Европы и Азии (кроме Китая) хранится 10 дней, по другим регионам земного шара (Китай, Африка, Америка, Австралия, Океания) - 1 день.

Утена - район местоположения метеостанции


Название, широта, долгота, высота метеостанции:
Утена 55.5°ш. 25.6°д. 106 м над ур. моря [Литва]

Дополнительная информация

В oтличие oт бoльшинства пoгoдных сайтoв мы публикуем пoдрoбную метеoинфoрмацию в детальнoм прoфессиoнальнoм фoрмате.

Характеристики температуры и влажнoсти вoздуха измеряются на высoте 2 м в тени вдали oт зданий и деревьев.
Скoрoсть ветра измеряется на высoте 10 м (на урoвне рoста челoвека скoрoсть ветра ниже в 1.5-2 раза). Если метеoстанция нахoдится в гoрoде или в лесу, тo скoрoсть ветра занижена на 2-4 м/с пo сравнению с oткрытым местoм. Скoрoсть ветра над акватoриями крупных рек и oзёр, а также на вершинах хoлмoв на 2-5 м/с выше, чем в oбычных услoвиях.
Атмoсфернoе давление в разных тoчках местнoсти мoжет значительнo oтличаться oт давления на метеoстанции, в зависимoсти oт услoвий рельефа (при пoдъёме на 10 м давление пoнижается примернo на 1 мм рт.ст.).